Dewpoint
44 41 41 40 39 39 37 35 29 36 39 34 34 29 22 25 18 21 18 22 20 18 18 15 16 16 20 24 24 20 25 23 21 14 18 20 20 30 30 26 24 25 27 24
41 41 40 40 39 38 36 32 28 34 38 28 26 21 21 23 20 21 20 19 22 22 19 16 18 19 25 24 24 21 20 19 13 3 14 21 21 20 21 24 28 24 23 24
41 40 40 39 39 39 35 33 23 26 33 32 27 23 21 20 24 22 24 24 24 21 20 19 17 20 24 26 28 32 26 21 16 11 12 20 20 20 21 22 19 22 23 24
41 40 39 39 38 38 37 33 27 28 25 25 25 24 24 21 21 23 24 24 24 23 20 18 19 21 22 23 25 27 24 19 21 21 21 18 16 17 17 19 19 19 18 23
39 39 38 38 38 40 36 31 28 29 25 25 22 23 22 21 19 23 21 22 21 19 19 18 18 21 20 19 22 22 25 19 19 16 13 12 15 18 19 19 19 19 17 18
38 38 38 39 40 40 33 33 32 29 25 22 20 20 21 20 21 22 20 20 18 19 22 23 22 22 22 20 22 21 21 19 18 11 17 19 15 21 28 20 19 23 20 28
39 39 38 40 41 38 35 34 33 28 22 20 21 21 20 19 19 18 18 19 20 24 24 25 24 23 22 23 21 22 21 19 18 16 17 11 19 31 32 30 32 34 35 34
39 39 39 40 42 41 36 36 32 29 24 21 19 20 20 19 20 17 25 25 25 25 26 23 21 20 20 22 24 23 21 21 16 13 16 17 20 30 29 28 29 33 33 32
40 40 40 41 41 41 36 35 37 32 26 23 26 21 19 19 19 24 25 28 28 27 24 21 19 15 17 19 24 28 24 23 21 23 11 10 22 28 30 34 24 30 30 29
40 40 40 40 42 41 36 34 36 30 26 29 27 23 23 25 23 23 24 25 25 26 17 12 12 18 23 21 18 25 24 24 19 20 18 21 27 30 33 23 23 28 26 26
41 40 40 40 41 42 35 34 36 31 28 29 30 30 25 25 25 20 22 21 22 22 19 18 13 11 22 21 22 26 25 22 22 23 21 18 29 28 23 29 30 28 26 26
42 41 40 40 41 43 38 34 38 35 30 29 31 30 30 27 26 25 26 22 26 24 19 19 20 19 21 20 19 30 23 26 23 23 22 31 31 29 31 32 30 28 27 26
42 41 40 40 41 42 39 35 36 32 29 29 29 27 30 30 28 28 27 29 31 28 26 21 21 20 24 17 21 23 26 30 27 26 27 27 30 30 31 29 27 27 27 25
43 41 40 41 41 41 39 36 36 34 29 24 28 31 29 32 30 29 30 31 30 30 28 21 19 21 26 23 28 22 25 26 26 25 28 28 29 30 29 28 28 28 27 26
42 41 40 41 41 40 37 37 37 37 28 24 25 28 30 31 30 30 29 28 27 26 23 20 20 25 25 30 24 22 28 26 24 20 27 27 27 29 31 27 26 27 24 22
42 40 40 40 40 35 32 27 35 39 34 24 20 28 28 29 31 30 29 29 27 26 24 22 25 27 25 21 17 26 30 31 31 26 30 30 29 30 29 27 26 25 24 22
42 41 40 40 40 37 31 28 36 39 32 20 18 24 28 30 31 32 32 33 29 28 26 25 24 25 29 22 19 27 29 31 31 33 29 27 29 27 30 27 25 24 22 22
41 40 41 41 38 36 34 40 40 34 30 26 18 21 25 29 26 29 31 30 29 28 25 26 26 27 29 22 25 28 28 30 30 32 32 28 28 24 23 23 22 22 20 20
40 39 36 33 31 28 34 38 37 35 29 21 21 18 14 28 27 28 28 28 21 28 22 25 26 22 25 25 26 28 29 28 25 31 29 26 28 25 21 21 20 19 19 19
37 32 26 18 29 38 35 31 27 28 31 31 22 25 20 26 19 20 22 23 23 19 23 26 20 22 28 28 29 29 30 30 32 25 24 24 22 21 21 20 20 19 19 18
30 23 29 34 40 35 30 25 23 25 24 25 26 25 22 29 19 20 25 25 26 22 22 23 23 21 25 26 27 27 27 27 26 26 27 26 23 20 19 18 17 17 17 15
29 35 37 37 32 29 23 22 24 23 21 24 23 25 26 26 30 22 25 28 28 23 31 26 17 18 24 24 23 23 23 23 23 25 23 22 20 19 17 16 15 13 11 7
38 33 30 28 29 20 16 14 19 15 22 22 23 20 23 26 27 21 24 26 23 28 24 16 15 21 23 22 21 21 20 20 19 19 18 18 16 15 14 11 7 8 5 -2
27 25 21 20 18 17 15 16 16 22 21 23 21 21 21 22 21 23 21 17 26 19 15 15 16 21 21 21 21 19 16 14 14 12 11 9 8 3 1 0 -3 1 -2 -8
27 28 15 20 23 25 29 30 30 29 30 22 21 23 23 19 16 25 24 23 20 23 20 14 20 21 19 16 13 12 9 6 5 2 5 4 3 3 -2 -6 -6 -3 -8 -8
28 28 24 27 26 26 28 28 29 33 31 29 25 22 17 19 24 24 21 23 18 19 14 11 17 15 11 10 10 7 6 6 5 6 5 3 2 3 0 -4 -4 -6 -6 -6
26 25 26 27 27 27 26 29 30 33 31 26 26 23 18 25 23 20 24 20 11 21 15 14 14 13 9 7 8 9 12 10 10 8 10 6 6 7 10 8 8 7 8 -2
Lifted_Index
9 10 10 11 11 11 9 9 9 10 9 7 5 5 5 4 4 3 3 3 3 3 3 2 2 3 4 5 5 5 5 5 4 5 6 6 5 4 3 2 1 1 1 1
10 10 10 11 11 10 9 9 9 9 8 6 5 4 4 4 3 3 3 3 3 3 3 3 3 3 4 5 5 5 6 5 4 4 5 5 5 4 4 3 2 1 1 1
10 10 10 10 10 10 9 8 8 8 6 5 4 4 3 3 3 3 4 4 4 3 3 3 3 4 5 6 6 6 6 6 5 4 5 5 5 5 5 4 3 2 2 2
10 10 10 10 10 9 8 7 7 6 5 4 4 3 3 3 3 3 4 4 4 4 3 3 4 5 6 6 7 7 6 6 5 5 5 5 5 5 5 4 4 3 3 2
10 10 10 10 9 8 6 5 5 4 4 3 3 3 3 3 3 3 4 4 4 5 4 5 5 6 7 7 7 7 6 5 4 4 4 4 4 4 4 3 4 4 3 2
10 10 9 9 8 7 6 5 4 3 3 3 3 2 3 3 4 4 4 5 6 6 6 7 7 7 7 7 7 6 6 5 3 3 3 2 2 2 2 2 2 2 2 2
9 9 9 8 7 6 5 4 3 3 2 3 3 3 3 4 4 5 5 6 6 7 7 7 7 7 7 6 5 5 4 3 3 2 2 1 1 1 1 1 1 1 1 1
9 9 8 7 7 6 5 4 3 3 3 3 3 3 4 5 5 6 6 6 7 7 7 6 6 5 5 4 4 3 2 2 2 1 1 1 1 1 1 1 0 0 0 1
8 8 7 7 6 6 5 4 3 3 3 3 4 4 5 5 6 6 6 6 6 6 6 5 4 4 3 3 2 2 2 1 1 1 1 1 1 1 1 1 1 1 2 2
8 7 7 6 6 6 5 4 3 3 3 4 4 5 5 5 6 6 6 6 6 6 6 5 4 3 2 2 2 2 1 1 1 1 1 1 2 2 2 1 2 3 3 3
7 7 7 6 6 6 5 4 4 4 4 4 5 5 6 6 6 6 6 6 6 6 6 5 4 2 1 1 2 1 1 1 1 1 1 2 2 3 3 3 4 4 4 4
6 6 6 6 6 5 5 5 4 4 4 5 5 6 6 6 6 6 6 6 6 6 6 5 4 2 1 1 2 2 1 1 1 1 2 3 4 5 5 5 5 5 5 5
5 6 6 6 5 5 5 5 5 5 5 5 5 6 6 6 6 6 6 6 6 6 6 6 4 2 2 2 2 2 2 2 2 2 3 4 5 5 6 6 6 6 6 6
5 5 6 6 5 5 5 5 5 5 5 5 5 5 6 6 6 6 6 5 5 6 6 5 4 3 2 2 2 2 3 2 2 2 3 4 4 5 6 6 6 6 7 7
5 5 5 6 6 6 6 6 5 5 5 5 5 5 5 5 5 5 5 5 5 5 5 5 4 3 3 2 2 3 3 3 3 3 4 4 4 5 6 6 6 7 7 7
5 5 6 6 6 6 6 6 6 6 5 5 5 4 4 4 4 4 4 4 4 4 4 4 4 3 3 2 2 3 4 4 4 4 5 5 5 6 7 7 8 8 9 9
5 6 6 6 6 7 6 6 6 6 6 5 5 4 4 4 4 4 3 3 3 3 3 3 3 3 2 2 2 3 4 4 5 6 6 6 6 7 8 8 9 9 10 10
6 6 6 7 7 7 7 6 7 6 6 5 5 4 4 3 3 3 3 2 2 2 2 2 2 2 2 2 2 3 4 4 5 6 6 7 7 7 8 9 9 9 9 9
6 7 7 8 7 7 7 7 6 6 6 5 5 4 4 3 3 2 2 2 2 2 2 2 2 2 1 2 2 3 4 4 5 6 6 7 7 7 8 8 8 8 8 9
7 8 8 8 8 7 7 6 6 6 5 5 4 4 3 3 2 2 2 1 1 1 1 1 1 1 2 2 3 4 5 5 5 6 6 7 7 7 7 8 8 9 9 9
8 8 8 8 7 7 6 6 5 5 5 4 4 4 3 2 2 2 1 1 1 1 1 1 1 1 2 3 4 5 6 6 6 6 6 7 7 7 8 8 9 9 10 10
7 7 7 7 6 6 5 5 4 4 4 4 3 3 3 2 2 2 1 1 1 1 0 0 1 2 2 3 4 5 6 7 7 7 7 7 8 8 9 9 10 11 11 12
6 6 6 6 5 5 5 4 4 4 3 3 3 2 2 2 1 2 2 1 1 1 1 1 1 2 2 4 5 6 6 7 7 7 8 8 9 10 10 10 11 12 12 13
6 6 5 5 5 5 4 4 4 3 3 2 2 2 2 2 2 2 2 2 1 1 1 1 1 2 3 4 5 6 7 7 8 8 9 9 10 11 11 12 13 13 13 13
5 5 5 4 4 4 4 4 3 3 3 2 2 2 2 2 2 2 2 2 1 1 1 1 2 3 4 5 6 7 8 8 9 9 10 10 11 11 12 13 14 14 14 14
5 5 4 4 4 4 3 3 3 3 3 2 2 2 2 2 2 2 2 1 1 2 2 2 3 4 5 6 7 8 9 9 10 10 11 11 12 12 13 14 14 15 15 16
5 5 4 4 4 3 3 3 3 3 3 2 2 2 2 2 2 2 1 1 2 2 3 3 4 4 5 7 8 9 9 10 10 11 12 12 13 13 13 14 15 16 17 17